Location: Roland
(31.1349°N, 85.4372°W)
Time: 12:51:12
(UTC+00:00)

X-37B - Pass Details

Date: 09 March 2021
Orbit: 380 x 394 km, 45.0° (Epoch: 07 April)

Event Time Altitude Azimuth Distance (km) Brightness Sun altitude
Rises 01:03:42 0° 219° (SW) 2,255 4.9 -17.6°
Reaches altitude 10° 01:05:48 10° 212° (SSW) 1,407 3.7 -18.0°
Enters shadow 01:08:12 36° 173° (S) 627 1.5 -18.5°
